GW5674 Weather Reports


time (UTC)temp
F
wind
direction
speed
knots
gust
knots
rain 1hr
in
rain 24hr
in
rain mn
in
humidity
%
barometer
mb
20260510043302 67 225 0.0 0.0 0.00 0.00 0.72 95 1014.9
20260510041802 67 68 0.0 0.0 0.00 0.00 0.72 95 1014.9
20260510040306 67 225 0.0 0.0 0.00 0.00 0.72 95 1015.2
20260510033802 67 225 0.0 0.0 0.00 0.00 0.72 95 1015.2
20260510032305 67 203 0.0 0.0 0.00 0.00 0.72 95 1015.2
20260510030802 67 293 0.0 0.0 0.00 0.00 0.72 95 1015.2
20260510025305 67 180 0.0 0.0 0.00 0.00 0.72 95 1014.9
20260510023802 67 225 0.0 0.0 0.00 0.00 0.72 95 1014.2
20260510022306 67 225 0.0 0.0 0.00 0.00 0.72 95 1014.2
20260510014802 67 45 0.0 0.0 0.00 0.00 0.72 94 1014.2
20260510013302 68 270 0.0 0.0 0.00 0.00 0.72 94 1013.5
20260510011802 68 203 0.0 0.0 0.00 0.00 0.72 93 1013.5
20260510004803 69 225 0.0 0.0 0.00 0.00 0.72 92 1013.5
20260510003302 70 203 0.0 0.0 0.00 0.00 0.72 91 1013.2
20260510001802 70 225 0.0 0.0 0.00 0.00 0.72 90 1013.2
20260509234803 71 203 0.0 0.0 0.00 0.00 0.72 90 1013.2
20260509233303 71 203 0.0 0.0 0.00 0.00 0.72 88 1013.2
20260509230802 71 225 0.0 0.0 0.00 0.00 0.72 89 1012.9
20260509225305 70 113 0.9 0.0 0.00 0.00 0.72 91 1013.2
20260509223803 70 180 0.0 0.0 0.00 0.00 0.72 90 1013.2
20260509222306 70 23 4.3 0.0 0.00 0.00 0.72 91 1012.9
20260509220802 70 203 1.7 0.0 0.00 0.00 0.72 91 1012.9
20260509215305 70 45 0.9 0.0 0.00 0.00 0.72 91 1012.9
20260509213805 70 180 0.0 0.0 0.00 0.00 0.72 92 1012.9
20260509212306 70 23 1.7 0.0 0.04 0.00 0.72 93 1013.2
20260509210816 70 203 0.9 0.0 0.04 0.00 0.72 92 1013.2
20260509203810 70 315 3.5 0.0 0.02 0.00 0.70 91 1013.2
20260509202804 71 180 1.7 0.0 0.00 0.00 0.68 89 1013.2
20260509201306 73 270 0.0 0.0 0.00 0.00 0.68 86 1013.2
20260509195808 73 225 0.0 0.0 0.00 0.00 0.68 83 1013.2
20260509194307 73 23 1.7 0.0 0.00 0.00 0.68 82 1013.2
20260509193303 74 225 0.0 0.0 0.00 0.00 0.68 84 1013.2
20260509190312 72 23 2.6 0.0 0.00 0.00 0.68 86 1013.2
20260509185307 72 113 1.7 0.0 0.00 0.00 0.68 86 1013.2
20260509184303 72 135 0.9 0.0 0.00 0.00 0.68 87 1013.5
20260509182807 72 113 1.7 0.0 0.00 0.00 0.68 89 1013.5
20260509181305 72 338 0.9 0.0 0.00 0.00 0.68 88 1013.5
20260509175806 72 45 3.5 0.0 0.00 0.00 0.68 88 1013.2
20260509174803 73 45 1.7 0.0 0.00 0.00 0.68 89 1013.5
20260509173302 72 113 0.9 0.0 0.05 0.00 0.68 90 1013.9
20260509171803 71 225 0.0 0.0 0.05 0.00 0.68 92 1013.9
20260509163302 72 180 1.7 0.0 0.00 0.00 0.63 85 1014.2
20260509161803 72 203 0.0 0.0 0.00 0.00 0.63 87 1014.2
20260509154803 70 68 0.9 0.0 0.00 0.00 0.63 90 1014.2
20260509153302 70 45 3.5 0.0 0.00 0.00 0.63 90 1013.9
20260509151802 69 158 1.7 0.0 0.00 0.00 0.63 90 1013.9
20260509150302 69 135 1.7 0.0 0.00 0.00 0.63 90 1013.5
20260509144803 69 23 2.6 0.0 0.00 0.00 0.63 91 1013.9
20260509143302 68 113 0.0 0.0 0.00 0.00 0.63 93 1013.5
20260509141802 67 23 0.9 0.0 0.00 0.00 0.63 94 1013.9
20260509140302 67 68 0.0 0.0 0.00 0.00 0.63 95 1013.9
20260509134802 67 225 0.0 0.0 0.00 0.00 0.63 95 1013.5
20260509133303 66 90 0.0 0.0 0.00 0.00 0.63 97 1013.5
20260509131802 66 225 0.0 0.0 0.00 0.00 0.63 97 1013.2
20260509130302 66 0 0.0 0.0 0.00 0.00 0.63 97 1013.2
20260509124802 65 248 0.0 0.0 0.00 0.00 0.63 97 1012.9
20260509120302 64 203 0.0 0.0 0.00 0.00 0.63 97 1013.2
20260509114802 64 203 0.0 0.0 0.01 0.00 0.63 97 1013.2
20260509113301 64 203 0.0 0.0 0.01 0.00 0.63 97 1012.9
20260509110802 64 203 0.0 0.0 0.01 0.00 0.63 97 1013.5
20260509104803 64 203 0.9 0.0 0.16 0.00 0.62 97 1012.5
20260509103302 64 248 0.0 0.0 0.54 0.00 0.62 97 1012.9
20260509101802 64 180 0.0 0.0 0.54 0.00 0.62 97 1012.9
20260509100302 65 270 3.5 0.0 0.51 0.00 0.57 97 1013.2
20260509093302 68 248 1.7 0.0 0.04 0.00 0.08 98 1012.5
20260509091802 68 203 1.7 0.0 0.04 0.00 0.08 98 1011.9
20260509090302 67 270 2.6 0.0 0.07 0.00 0.07 98 1011.5
20260509084802 66 135 0.0 0.0 0.04 0.00 0.04 98 1011.5
20260509083302 66 248 0.0 0.0 0.04 0.00 0.04 98 1011.2
20260509081302 65 180 0.0 0.0 0.00 0.00 0.00 97 1011.9
20260509075802 65 225 0.0 0.0 0.00 0.00 0.00 97 1011.5
20260509073802 65 203 0.0 0.0 0.00 0.00 0.00 97 1011.9
20260509072306 65 270 0.0 0.0 0.00 0.00 0.00 97 1012.2
20260509070802 66 203 0.0 0.0 0.00 0.00 0.00 97 1012.5
20260509065305 66 293 0.0 0.0 0.00 0.00 0.00 97 1013.2
20260509062815 65 203 0.0 0.0 0.00 0.00 0.00 97 1013.2
20260509061305 66 270 0.0 0.0 0.00 0.00 0.00 96 1013.2
20260509053304 67 270 0.0 0.0 0.00 0.00 0.00 96 1013.2
20260509050303 67 158 0.0 0.0 0.00 0.00 0.00 96 1012.5
20260509045314 67 203 0.0 0.0 0.00 0.00 2.40 96 1013.2